Time,TemperatureF,DewpointF,PressureIn,WindDirection,WindDirectionDegrees,WindSpeedMPH,WindSpeedGustMPH,Humidity,HourlyPrecipIn,Conditions,Clouds,dailyrainin,SoftwareType,DateUTC
2013-01-21 00:03:00,-999.0,-99.9,-100.00,NNW,337,4.0,-999.0,-999,-99.99,,,-99.99,,2013-01-21 08:03:00,
2013-01-21 00:14:00,-999.0,-99.9,-100.00,NNW,337,4.0,-999.0,-999,-99.99,,,-99.99,,2013-01-21 08:14:00,
2013-01-21 01:23:00,-999.0,-99.9,-100.00,WNW,303,2.0,-999.0,-999,-99.99,,,-99.99,,2013-01-21 09:23:00,
2013-01-21 02:32:00,43.0,1.0,-100.00,North,-999,-999.0,-999.0,16,-99.99,,,-99.99,,2013-01-21 10:32:00,
2013-01-21 02:42:00,43.0,1.0,-100.00,North,-999,-999.0,-999.0,16,-99.99,,,-99.99,,2013-01-21 10:42:00,
2013-01-21 02:53:00,-999.0,-99.9,-100.00,North,0,1.0,-999.0,-999,-99.99,,,-99.99,,2013-01-21 10:53:00,
2013-01-21 03:10:00,-999.0,-99.9,-100.00,NNE,33,4.0,-999.0,15,-99.99,,,-99.99,,2013-01-21 11:10:00,
2013-01-21 03:33:00,-999.0,-99.9,-100.00,NNE,33,4.0,-999.0,15,-99.99,,,-99.99,,2013-01-21 11:33:00,
2013-01-21 03:43:00,-999.0,-99.9,-100.00,NNE,33,4.0,-999.0,15,-99.99,,,-99.99,,2013-01-21 11:43:00,
2013-01-21 03:53:00,-999.0,-99.9,-100.00,NNE,33,4.0,-999.0,15,-99.99,,,-99.99,,2013-01-21 11:53:00,
2013-01-21 04:03:00,-999.0,-99.9,-100.00,NNE,33,4.0,-999.0,15,-99.99,,,-99.99,,2013-01-21 12:03:00,
2013-01-21 04:53:00,-999.0,-99.9,-100.00,North,354,2.0,-999.0,-999,-99.99,,,-99.99,,2013-01-21 12:53:00,
2013-01-21 05:54:00,-999.0,-99.9,-100.00,North,0,3.0,-999.0,-999,-99.99,,,-99.99,,2013-01-21 13:54:00,
2013-01-21 07:14:00,-999.0,-99.9,-100.00,ENE,73,3.0,-999.0,-999,-99.99,,,-99.99,,2013-01-21 15:14:00,
2013-01-21 07:33:00,46.0,-5.0,-100.00,North,-999,-999.0,-999.0,11,-99.99,,,-99.99,,2013-01-21 15:33:00,
2013-01-21 07:43:00,-999.0,-99.9,-100.00,NE,39,5.0,-999.0,-999,-99.99,,,-99.99,,2013-01-21 15:43:00,
2013-01-21 08:13:00,-999.0,-99.9,-100.00,WSW,253,5.0,-999.0,-999,-99.99,,,-99.99,,2013-01-21 16:13:00,
2013-01-21 08:24:00,-999.0,-99.9,-100.00,WSW,253,5.0,-999.0,-999,-99.99,,,-99.99,,2013-01-21 16:24:00,
2013-01-21 08:34:00,-999.0,-99.9,-100.00,WSW,253,5.0,-999.0,-999,-99.99,,,-99.99,,2013-01-21 16:34:00,
2013-01-21 08:44:00,-999.0,-99.9,-100.00,NNE,33,6.0,-999.0,-999,-99.99,,,-99.99,,2013-01-21 16:44:00,
2013-01-21 08:53:00,-999.0,-99.9,-100.00,NNE,33,6.0,-999.0,-999,-99.99,,,-99.99,,2013-01-21 16:53:00,
2013-01-21 09:02:00,50.0,0.0,-100.00,North,-999,-999.0,-999.0,12,-99.99,,,0.00,,2013-01-21 17:02:00,
2013-01-21 09:12:00,50.0,0.0,-100.00,North,-999,-999.0,-999.0,12,-99.99,,,0.00,,2013-01-21 17:12:00,
2013-01-21 09:53:00,-999.0,-99.9,-100.00,North,11,6.0,-999.0,-999,-99.99,,,-99.99,,2013-01-21 17:53:00,
2013-01-21 10:53:00,-999.0,-99.9,-100.00,NNW,337,3.0,-999.0,-999,-99.99,,,-99.99,,2013-01-21 18:53:00,
2013-01-21 12:04:00,56.0,-99.9,-100.00,North,-999,-999.0,-999.0,-999,-99.99,,,-99.99,,2013-01-21 20:04:00,
2013-01-21 12:13:00,56.0,-99.9,-100.00,North,-999,-999.0,-999.0,-999,-99.99,,,-99.99,,2013-01-21 20:13:00,
2013-01-21 12:53:00,-999.0,-99.9,-100.00,NE,50,3.0,-999.0,13,-99.99,,,-99.99,,2013-01-21 20:53:00,
2013-01-21 13:04:00,-999.0,-99.9,-100.00,NE,50,3.0,-999.0,13,-99.99,,,-99.99,,2013-01-21 21:04:00,
2013-01-21 13:13:00,-999.0,-99.9,-100.00,NE,50,3.0,-999.0,13,-99.99,,,-99.99,,2013-01-21 21:13:00,
2013-01-21 13:23:00,-999.0,-99.9,-100.00,NE,50,3.0,-999.0,13,-99.99,,,-99.99,,2013-01-21 21:23:00,
2013-01-21 14:13:00,-999.0,-99.9,-100.00,WNW,292,2.0,-999.0,-999,-99.99,,,-99.99,,2013-01-21 22:13:00,
2013-01-21 14:24:00,-999.0,-99.9,-100.00,WNW,292,2.0,-999.0,-999,-99.99,,,-99.99,,2013-01-21 22:24:00,
2013-01-21 14:33:00,-999.0,-99.9,-100.00,WNW,292,2.0,-999.0,-999,-99.99,,,-99.99,,2013-01-21 22:33:00,
2013-01-21 14:43:00,-999.0,-99.9,-100.00,WNW,292,2.0,-999.0,-999,-99.99,,,-99.99,,2013-01-21 22:43:00,
2013-01-21 15:03:00,-999.0,-99.9,-100.00,NNE,28,3.0,-999.0,-999,-99.99,,,-99.99,,2013-01-21 23:03:00,
2013-01-21 15:13:00,-999.0,-99.9,-100.00,NNE,28,3.0,-999.0,-999,-99.99,,,-99.99,,2013-01-21 23:13:00,
2013-01-21 15:23:00,53.0,-99.9,-100.00,North,-999,-999.0,-999.0,-999,-99.99,,,-99.99,,2013-01-21 23:23:00,
2013-01-21 15:33:00,53.0,-99.9,-100.00,North,-999,-999.0,-999.0,-999,-99.99,,,-99.99,,2013-01-21 23:33:00,
2013-01-21 15:41:00,-999.0,-99.9,-100.00,North,5,2.0,-999.0,-999,-99.99,,,-99.99,,2013-01-21 23:41:00,
2013-01-21 15:43:00,53.0,-99.9,-100.00,North,-999,-999.0,-999.0,-999,-99.99,,,-99.99,,2013-01-21 23:43:00,
2013-01-21 15:53:00,53.0,-99.9,-100.00,North,-999,-999.0,-999.0,-999,-99.99,,,-99.99,,2013-01-21 23:53:00,
2013-01-21 16:03:00,-999.0,-99.9,-100.00,North,5,2.0,-999.0,-999,-99.99,,,-99.99,,2013-01-22 00:03:00,
2013-01-21 16:12:00,-999.0,-99.9,-100.00,North,5,2.0,-999.0,-999,-99.99,,,-99.99,,2013-01-22 00:12:00,
2013-01-21 16:23:00,-999.0,-99.9,-100.00,North,5,2.0,-999.0,-999,-99.99,,,-99.99,,2013-01-22 00:23:00,
2013-01-21 16:33:00,-999.0,-99.9,-100.00,North,5,2.0,-999.0,-999,-99.99,,,-99.99,,2013-01-22 00:33:00,
2013-01-21 16:51:00,-999.0,-99.9,-100.00,NNW,348,2.0,-999.0,-999,-99.99,,,-99.99,,2013-01-22 00:51:00,
2013-01-21 17:13:00,-999.0,-99.9,-100.00,NNW,348,2.0,-999.0,-999,-99.99,,,-99.99,,2013-01-22 01:13:00,
2013-01-21 17:23:00,-999.0,-99.9,-100.00,NNW,348,2.0,-999.0,-999,-99.99,,,-99.99,,2013-01-22 01:23:00,
2013-01-21 17:33:00,-999.0,-99.9,-100.00,NNW,348,2.0,-999.0,-999,-99.99,,,-99.99,,2013-01-22 01:33:00,
2013-01-21 17:43:00,-999.0,-99.9,-100.00,NNW,348,2.0,-999.0,-999,-99.99,,,-99.99,,2013-01-22 01:43:00,
2013-01-21 18:23:00,47.0,-99.9,-100.00,North,-999,-999.0,-999.0,-999,-99.99,,,-99.99,,2013-01-22 02:23:00,
2013-01-21 18:33:00,47.0,-99.9,-100.00,North,-999,-999.0,-999.0,-999,-99.99,,,-99.99,,2013-01-22 02:33:00,
2013-01-21 18:43:00,47.0,-99.9,-100.00,North,-999,-999.0,-999.0,-999,-99.99,,,-99.99,,2013-01-22 02:43:00,
2013-01-21 18:53:00,47.0,-99.9,-100.00,North,-999,-999.0,-999.0,-999,-99.99,,,-99.99,,2013-01-22 02:53:00,
2013-01-21 19:53:00,-999.0,-99.9,-100.00,ENE,61,2.0,-999.0,-999,-99.99,,,-99.99,,2013-01-22 03:53:00,
2013-01-21 20:02:00,50.0,0.0,-100.00,North,-999,-999.0,-999.0,12,-99.99,,,-99.99,,2013-01-22 04:02:00,
2013-01-21 20:12:00,-999.0,-99.9,-100.00,NNE,22,6.0,-999.0,-999,-99.99,,,-99.99,,2013-01-22 04:12:00,
2013-01-21 20:22:00,-999.0,-99.9,-100.00,NNE,22,6.0,-999.0,-999,-99.99,,,-99.99,,2013-01-22 04:22:00,
2013-01-21 20:33:00,-999.0,-99.9,-100.00,NNE,22,6.0,-999.0,-999,-99.99,,,-99.99,,2013-01-22 04:33:00,
2013-01-21 20:40:00,50.0,0.0,-100.00,North,-999,-999.0,-999.0,12,-99.99,,,0.00,,2013-01-22 04:40:00,
2013-01-21 20:43:00,-999.0,-99.9,-100.00,NNE,22,6.0,-999.0,-999,-99.99,,,-99.99,,2013-01-22 04:43:00,
2013-01-21 20:53:00,-999.0,-99.9,-100.00,North,354,4.0,-999.0,-999,-99.99,,,-99.99,,2013-01-22 04:53:00,
2013-01-21 21:03:00,50.0,0.0,-100.00,North,-999,-999.0,-999.0,12,-99.99,,,0.00,,2013-01-22 05:03:00,
2013-01-21 21:12:00,50.0,0.0,-100.00,North,-999,-999.0,-999.0,12,-99.99,,,0.00,,2013-01-22 05:12:00,
2013-01-21 21:22:00,50.0,0.0,-100.00,North,-999,-999.0,-999.0,12,-99.99,,,0.00,,2013-01-22 05:22:00,
2013-01-21 21:32:00,50.0,0.0,-100.00,North,-999,-999.0,-999.0,12,-99.99,,,0.00,,2013-01-22 05:32:00,
2013-01-21 23:12:00,-999.0,-99.9,-100.00,West,270,1.0,-999.0,-999,-99.99,,,-99.99,,2013-01-22 07:12:00,
2013-01-21 23:22:00,-999.0,-99.9,-100.00,West,270,1.0,-999.0,-999,-99.99,,,-99.99,,2013-01-22 07:22:00,
2013-01-21 23:33:00,-999.0,-99.9,-100.00,West,270,1.0,-999.0,-999,-99.99,,,-99.99,,2013-01-22 07:33:00,
2013-01-21 23:43:00,-999.0,-99.9,-100.00,West,270,1.0,-999.0,-999,-99.99,,,-99.99,,2013-01-22 07:43:00,